Time,TemperatureF,DewpointF,PressureIn,WindDirection,WindDirectionDegrees,WindSpeedMPH,WindSpeedGustMPH,Humidity,HourlyPrecipIn,Conditions,Clouds,dailyrainin,SoftwareType,DateUTC
2017-05-29 00:00:00,63.1,60.7,29.79,WSW,244,1.0,1.0,92,0.00,,,0.00,Wunderground v.1.15,2017-05-29 04:00:00,
2017-05-29 00:10:00,63.1,60.7,29.80,WSW,239,0.0,0.0,92,0.00,,,0.00,Wunderground v.1.15,2017-05-29 04:10:00,
2017-05-29 00:15:00,63.1,61.0,29.81,SW,216,0.0,8.0,93,0.00,,,0.00,Wunderground v.1.15,2017-05-29 04:15:00,
2017-05-29 00:25:00,63.1,61.0,29.81,WSW,250,1.0,9.0,93,0.00,,,0.00,Wunderground v.1.15,2017-05-29 04:25:00,
2017-05-29 00:30:00,63.1,61.0,29.80,WSW,244,1.0,2.0,93,0.00,,,0.00,Wunderground v.1.15,2017-05-29 04:30:00,
2017-05-29 00:40:00,63.1,61.0,29.80,SW,217,1.0,1.0,93,0.00,,,0.00,Wunderground v.1.15,2017-05-29 04:40:00,
2017-05-29 00:45:00,63.1,61.0,29.80,WSW,244,0.0,1.0,93,0.00,,,0.00,Wunderground v.1.15,2017-05-29 04:45:00,
2017-05-29 00:55:00,63.0,60.9,29.79,SW,234,1.0,1.0,93,0.00,,,0.00,Wunderground v.1.15,2017-05-29 04:55:00,
2017-05-29 01:00:00,62.9,60.8,29.79,WSW,244,1.0,1.0,93,0.00,,,0.00,Wunderground v.1.15,2017-05-29 05:00:00,
2017-05-29 01:10:00,62.6,60.8,29.80,WSW,243,0.0,0.0,94,0.00,,,0.00,Wunderground v.1.15,2017-05-29 05:10:00,
2017-05-29 01:20:00,62.4,60.7,29.81,SW,233,0.0,0.0,94,0.00,,,0.00,Wunderground v.1.15,2017-05-29 05:20:00,
2017-05-29 01:25:00,62.3,60.6,29.81,WSW,255,0.0,0.0,94,0.00,,,0.00,Wunderground v.1.15,2017-05-29 05:25:00,
2017-05-29 01:35:00,62.1,60.4,29.82,WSW,245,0.0,0.0,94,0.00,,,0.00,Wunderground v.1.15,2017-05-29 05:35:00,
2017-05-29 01:45:00,61.9,60.2,29.82,WSW,240,0.0,0.0,94,0.00,,,0.00,Wunderground v.1.15,2017-05-29 05:45:00,
2017-05-29 01:50:00,61.7,60.3,29.82,SW,234,0.0,0.0,95,0.00,,,0.00,Wunderground v.1.15,2017-05-29 05:50:00,
2017-05-29 02:00:00,61.5,60.1,29.82,WSW,244,0.0,0.0,95,0.00,,,0.00,Wunderground v.1.15,2017-05-29 06:00:00,
2017-05-29 02:05:00,61.3,59.9,29.82,SW,236,0.0,0.0,95,0.00,,,0.00,Wunderground v.1.15,2017-05-29 06:05:00,
2017-05-29 02:15:00,61.1,59.7,29.82,SW,236,0.0,0.0,95,0.00,,,0.00,Wunderground v.1.15,2017-05-29 06:15:00,
2017-05-29 02:25:00,60.8,59.4,29.83,SW,231,0.0,0.0,95,0.00,,,0.00,Wunderground v.1.15,2017-05-29 06:25:00,
2017-05-29 02:30:00,60.7,59.3,29.83,SW,218,0.0,0.0,95,0.00,,,0.00,Wunderground v.1.15,2017-05-29 06:30:00,
2017-05-29 02:35:00,60.7,59.6,29.83,SW,226,0.0,0.0,96,0.00,,,0.00,Wunderground v.1.15,2017-05-29 06:35:00,
2017-05-29 02:45:00,60.6,59.5,29.83,SW,227,0.0,0.0,96,0.00,,,0.00,Wunderground v.1.15,2017-05-29 06:45:00,
2017-05-29 02:55:00,60.4,59.3,29.83,SW,230,0.0,0.0,96,0.00,,,0.00,Wunderground v.1.15,2017-05-29 06:55:00,
2017-05-29 03:00:00,60.3,59.2,29.83,SW,236,0.0,0.0,96,0.00,,,0.00,Wunderground v.1.15,2017-05-29 07:00:00,
2017-05-29 03:10:00,60.2,59.1,29.83,SW,224,0.0,0.0,96,0.00,,,0.00,Wunderground v.1.15,2017-05-29 07:10:00,
2017-05-29 03:20:00,60.0,58.9,29.83,SW,221,0.0,0.0,96,0.00,,,0.00,Wunderground v.1.15,2017-05-29 07:20:00,
2017-05-29 03:25:00,60.0,58.9,29.82,SW,216,0.0,0.0,96,0.00,,,0.00,Wunderground v.1.15,2017-05-29 07:25:00,
2017-05-29 03:35:00,59.8,58.7,29.82,SW,217,0.0,0.0,96,0.00,,,0.00,Wunderground v.1.15,2017-05-29 07:35:00,
2017-05-29 03:45:00,59.9,58.8,29.82,SW,225,0.0,0.0,96,0.00,,,0.00,Wunderground v.1.15,2017-05-29 07:45:00,
2017-05-29 03:50:00,59.8,58.7,29.82,SW,219,0.0,0.0,96,0.00,,,0.00,Wunderground v.1.15,2017-05-29 07:50:00,
2017-05-29 04:00:00,59.7,58.6,29.82,SW,234,0.0,0.0,96,0.00,,,0.00,Wunderground v.1.15,2017-05-29 08:00:00,
2017-05-29 04:05:00,59.6,58.7,29.82,WSW,248,0.0,0.0,97,0.00,,,0.00,Wunderground v.1.15,2017-05-29 08:05:00,
2017-05-29 04:15:00,59.6,58.7,29.82,SW,234,0.0,0.0,97,0.00,,,0.00,Wunderground v.1.15,2017-05-29 08:15:00,
2017-05-29 04:20:00,59.6,58.7,29.83,SW,226,0.0,0.0,97,0.00,,,0.00,Wunderground v.1.15,2017-05-29 08:20:00,
2017-05-29 04:30:00,59.7,58.8,29.83,SW,222,0.0,0.0,97,0.00,,,0.00,Wunderground v.1.15,2017-05-29 08:30:00,
2017-05-29 04:35:00,59.7,58.8,29.83,SW,231,0.0,0.0,97,0.00,,,0.00,Wunderground v.1.15,2017-05-29 08:35:00,
2017-05-29 04:45:00,59.7,58.8,29.83,SW,234,0.0,0.0,97,0.00,,,0.00,Wunderground v.1.15,2017-05-29 08:45:00,
2017-05-29 04:55:00,59.5,58.6,29.83,SW,228,0.0,0.0,97,0.00,,,0.00,Wunderground v.1.15,2017-05-29 08:55:00,
2017-05-29 05:05:00,59.5,58.6,29.84,SW,232,0.0,0.0,97,0.00,,,0.00,Wunderground v.1.15,2017-05-29 09:05:00,
2017-05-29 05:10:00,59.5,58.6,29.84,SW,218,0.0,0.0,97,0.00,,,0.00,Wunderground v.1.15,2017-05-29 09:10:00,
2017-05-29 05:20:00,59.6,58.7,29.84,SW,234,0.0,0.0,97,0.00,,,0.00,Wunderground v.1.15,2017-05-29 09:20:00,
2017-05-29 05:25:00,59.6,58.7,29.85,SW,234,0.0,0.0,97,0.00,,,0.00,Wunderground v.1.15,2017-05-29 09:25:00,
2017-05-29 05:35:00,59.5,58.6,29.85,SW,216,0.0,0.0,97,0.00,,,0.00,Wunderground v.1.15,2017-05-29 09:35:00,
2017-05-29 05:45:00,59.3,58.4,29.85,SW,223,0.0,0.0,97,0.00,,,0.00,Wunderground v.1.15,2017-05-29 09:45:00,
2017-05-29 05:50:00,59.4,58.5,29.85,SW,222,0.0,0.0,97,0.00,,,0.00,Wunderground v.1.15,2017-05-29 09:50:00,
2017-05-29 06:00:00,59.3,58.7,29.86,SW,229,0.0,0.0,98,0.00,,,0.00,Wunderground v.1.15,2017-05-29 10:00:00,
2017-05-29 06:10:00,59.3,58.7,29.86,SSW,207,0.0,0.0,98,0.00,,,0.00,Wunderground v.1.15,2017-05-29 10:10:00,
2017-05-29 06:15:00,59.3,58.4,29.87,SSW,213,0.0,0.0,97,0.00,,,0.00,Wunderground v.1.15,2017-05-29 10:15:00,
2017-05-29 06:25:00,59.5,58.9,29.87,SSW,213,0.0,0.0,98,0.00,,,0.00,Wunderground v.1.15,2017-05-29 10:25:00,
2017-05-29 06:30:00,59.5,58.9,29.87,SSW,207,1.0,1.0,98,0.00,,,0.00,Wunderground v.1.15,2017-05-29 10:30:00,
2017-05-29 06:40:00,59.7,59.1,29.88,SSW,209,0.0,0.0,98,0.00,,,0.00,Wunderground v.1.15,2017-05-29 10:40:00,
2017-05-29 06:50:00,59.9,59.3,29.89,SW,221,0.0,0.0,98,0.00,,,0.00,Wunderground v.1.15,2017-05-29 10:50:00,
2017-05-29 06:55:00,59.9,59.3,29.89,SW,221,0.0,0.0,98,0.00,,,0.00,Wunderground v.1.15,2017-05-29 10:55:00,
2017-05-29 07:05:00,60.2,59.6,29.91,WSW,238,0.0,0.0,98,0.00,,,0.00,Wunderground v.1.15,2017-05-29 11:05:00,
2017-05-29 07:10:00,60.4,59.8,29.91,SW,225,1.0,1.0,98,0.00,,,0.00,Wunderground v.1.15,2017-05-29 11:10:00,
2017-05-29 07:20:00,60.6,60.0,29.91,SSW,205,0.0,0.0,98,0.00,,,0.00,Wunderground v.1.15,2017-05-29 11:20:00,
2017-05-29 07:30:00,60.8,60.2,29.91,South,170,2.0,2.0,98,0.00,,,0.00,Wunderground v.1.15,2017-05-29 11:30:00,
2017-05-29 07:35:00,60.9,60.3,29.91,SW,223,2.0,2.0,98,0.00,,,0.00,Wunderground v.1.15,2017-05-29 11:35:00,
2017-05-29 07:45:00,61.1,60.5,29.91,SW,230,0.0,1.0,98,0.00,,,0.00,Wunderground v.1.15,2017-05-29 11:45:00,
2017-05-29 07:50:00,61.1,60.5,29.90,SW,215,1.0,4.0,98,0.00,,,0.00,Wunderground v.1.15,2017-05-29 11:50:00,
2017-05-29 08:00:00,61.4,60.8,29.90,SW,231,1.0,1.0,98,0.00,,,0.00,Wunderground v.1.15,2017-05-29 12:00:00,
2017-05-29 08:05:00,61.5,60.9,29.90,WSW,249,1.0,1.0,98,0.00,,,0.00,Wunderground v.1.15,2017-05-29 12:05:00,
2017-05-29 08:15:00,61.7,61.1,29.90,SW,234,2.0,2.0,98,0.00,,,0.00,Wunderground v.1.15,2017-05-29 12:15:00,
2017-05-29 08:25:00,62.1,61.5,29.90,SW,225,2.0,3.0,98,0.00,,,0.00,Wunderground v.1.15,2017-05-29 12:25:00,
2017-05-29 08:30:00,62.1,61.5,29.90,SW,230,1.0,1.0,98,0.00,,,0.00,Wunderground v.1.15,2017-05-29 12:30:00,
2017-05-29 08:40:00,62.6,62.0,29.90,SW,227,1.0,1.0,98,0.00,,,0.00,Wunderground v.1.15,2017-05-29 12:40:00,
2017-05-29 08:45:00,62.8,62.2,29.90,WSW,244,1.0,1.0,98,0.00,,,0.00,Wunderground v.1.15,2017-05-29 12:45:00,
2017-05-29 08:55:00,63.1,61.9,29.89,SW,229,2.0,2.0,96,0.00,,,0.00,Wunderground v.1.15,2017-05-29 12:55:00,
2017-05-29 09:05:00,63.8,62.0,29.89,SSW,211,1.0,10.0,94,0.00,,,0.00,Wunderground v.1.15,2017-05-29 13:05:00,
2017-05-29 09:10:00,64.1,62.0,29.89,SW,236,1.0,1.0,93,0.00,,,0.00,Wunderground v.1.15,2017-05-29 13:10:00,
2017-05-29 09:20:00,65.1,62.4,29.89,SW,222,0.0,0.0,91,0.00,,,0.00,Wunderground v.1.15,2017-05-29 13:20:00,
2017-05-29 09:30:00,66.1,62.4,29.90,SW,227,0.0,0.0,88,0.00,,,0.00,Wunderground v.1.15,2017-05-29 13:30:00,
2017-05-29 09:40:00,66.9,62.6,29.90,WSW,257,0.0,0.0,86,0.00,,,0.00,Wunderground v.1.15,2017-05-29 13:40:00,
2017-05-29 09:45:00,67.2,62.2,29.90,SW,228,1.0,1.0,84,0.00,,,0.00,Wunderground v.1.15,2017-05-29 13:45:00,
2017-05-29 09:55:00,67.9,62.2,29.90,SW,229,2.0,5.0,82,0.00,,,0.00,Wunderground v.1.15,2017-05-29 13:55:00,
2017-05-29 10:00:00,68.5,62.4,29.90,SSW,213,2.0,2.0,81,0.00,,,0.00,Wunderground v.1.15,2017-05-29 14:00:00,
2017-05-29 10:10:00,69.2,62.4,29.90,WSW,238,3.0,3.0,79,0.00,,,0.00,Wunderground v.1.15,2017-05-29 14:10:00,
2017-05-29 10:20:00,69.6,62.1,29.90,SW,216,2.0,7.0,77,0.00,,,0.00,Wunderground v.1.15,2017-05-29 14:20:00,
2017-05-29 10:25:00,69.8,61.9,29.90,WSW,254,3.0,8.0,76,0.00,,,0.00,Wunderground v.1.15,2017-05-29 14:25:00,
2017-05-29 10:35:00,70.1,61.8,29.90,SW,217,4.0,6.0,75,0.00,,,0.00,Wunderground v.1.15,2017-05-29 14:35:00,
2017-05-29 10:45:00,70.6,62.3,29.90,SW,222,2.0,3.0,75,0.00,,,0.00,Wunderground v.1.15,2017-05-29 14:45:00,
2017-05-29 10:50:00,71.1,62.4,29.90,West,275,2.0,3.0,74,0.00,,,0.00,Wunderground v.1.15,2017-05-29 14:50:00,
2017-05-29 11:00:00,71.5,62.4,29.90,SW,225,3.0,3.0,73,0.00,,,0.00,Wunderground v.1.15,2017-05-29 15:00:00,
2017-05-29 11:05:00,71.7,62.6,29.91,WSW,238,5.0,9.0,73,0.00,,,0.00,Wunderground v.1.15,2017-05-29 15:05:00,
2017-05-29 11:15:00,72.0,61.7,29.91,SW,223,6.0,9.0,70,0.00,,,0.00,Wunderground v.1.15,2017-05-29 15:15:00,
2017-05-29 11:25:00,72.8,61.6,29.91,South,182,4.0,4.0,68,0.00,,,0.00,Wunderground v.1.15,2017-05-29 15:25:00,
2017-05-29 11:30:00,73.1,62.3,29.91,SW,234,5.0,5.0,69,0.00,,,0.00,Wunderground v.1.15,2017-05-29 15:30:00,
2017-05-29 11:40:00,73.2,61.6,29.91,WSW,247,7.0,7.0,67,0.00,,,0.00,Wunderground v.1.15,2017-05-29 15:40:00,
2017-05-29 11:50:00,74.1,62.0,29.90,SSW,209,3.0,3.0,66,0.00,,,0.00,Wunderground v.1.15,2017-05-29 15:50:00,
2017-05-29 11:55:00,74.5,61.1,29.90,WSW,241,3.0,3.0,63,0.00,,,0.00,Wunderground v.1.15,2017-05-29 15:55:00,
2017-05-29 12:05:00,74.6,59.3,29.91,SW,223,7.0,8.0,59,0.00,,,0.00,Wunderground v.1.15,2017-05-29 16:05:00,
2017-05-29 12:10:00,74.8,60.4,29.91,SW,232,7.0,10.0,61,0.00,,,0.00,Wunderground v.1.15,2017-05-29 16:10:00,
2017-05-29 12:20:00,75.0,59.7,29.91,SW,226,9.0,9.0,59,0.00,,,0.00,Wunderground v.1.15,2017-05-29 16:20:00,
2017-05-29 12:30:00,75.7,58.9,29.91,WSW,254,4.0,4.0,56,0.00,,,0.00,Wunderground v.1.15,2017-05-29 16:30:00,
2017-05-29 12:35:00,76.2,58.9,29.91,WSW,237,5.0,6.0,55,0.00,,,0.00,Wunderground v.1.15,2017-05-29 16:35:00,
2017-05-29 12:45:00,76.3,59.4,29.92,WSW,255,8.0,10.0,56,0.00,,,0.00,Wunderground v.1.15,2017-05-29 16:45:00,
2017-05-29 12:50:00,76.3,59.4,29.91,SSW,203,7.0,7.0,56,0.00,,,0.00,Wunderground v.1.15,2017-05-29 16:50:00,
2017-05-29 13:00:00,76.6,56.6,29.91,SW,223,9.0,9.0,50,0.00,,,0.00,Wunderground v.1.15,2017-05-29 17:00:00,
2017-05-29 13:10:00,77.4,56.7,29.91,SW,217,7.0,13.0,49,0.00,,,0.00,Wunderground v.1.15,2017-05-29 17:10:00,
2017-05-29 13:15:00,77.4,57.9,29.91,SW,221,8.0,13.0,51,0.00,,,0.00,Wunderground v.1.15,2017-05-29 17:15:00,
2017-05-29 13:25:00,76.7,58.3,29.91,SSW,213,5.0,19.0,53,0.00,,,0.00,Wunderground v.1.15,2017-05-29 17:25:00,
2017-05-29 13:30:00,76.3,57.4,29.91,West,261,7.0,7.0,52,0.00,,,0.00,Wunderground v.1.15,2017-05-29 17:30:00,
2017-05-29 13:40:00,76.7,57.2,29.91,WSW,246,7.0,7.0,51,0.00,,,0.00,Wunderground v.1.15,2017-05-29 17:40:00,
2017-05-29 13:50:00,77.7,57.6,29.91,SW,236,9.0,12.0,50,0.00,,,0.00,Wunderground v.1.15,2017-05-29 17:50:00,
2017-05-29 13:55:00,77.2,57.1,29.91,West,265,7.0,12.0,50,0.00,,,0.00,Wunderground v.1.15,2017-05-29 17:55:00,
2017-05-29 14:05:00,76.2,56.7,29.91,SW,216,8.0,10.0,51,0.00,,,0.00,Wunderground v.1.15,2017-05-29 18:05:00,
2017-05-29 14:10:00,76.2,57.8,29.91,WSW,256,8.0,8.0,53,0.00,,,0.00,Wunderground v.1.15,2017-05-29 18:10:00,
2017-05-29 14:20:00,76.3,57.9,29.91,WSW,247,4.0,4.0,53,0.00,,,0.00,Wunderground v.1.15,2017-05-29 18:20:00,
2017-05-29 14:30:00,77.4,58.9,29.91,WSW,242,6.0,6.0,53,0.00,,,0.00,Wunderground v.1.15,2017-05-29 18:30:00,
2017-05-29 14:35:00,78.0,57.9,29.91,SW,231,8.0,12.0,50,0.00,,,0.00,Wunderground v.1.15,2017-05-29 18:35:00,
2017-05-29 14:45:00,78.0,58.4,29.91,SW,232,6.0,8.0,51,0.00,,,0.00,Wunderground v.1.15,2017-05-29 18:45:00,
2017-05-29 14:55:00,78.1,57.4,29.91,WSW,240,9.0,14.0,49,0.00,,,0.00,Wunderground v.1.15,2017-05-29 18:55:00,
2017-05-29 15:00:00,77.4,56.7,29.91,SW,221,8.0,8.0,49,0.00,,,0.00,Wunderground v.1.15,2017-05-29 19:00:00,
2017-05-29 15:10:00,76.6,56.6,29.91,SSW,211,6.0,6.0,50,0.00,,,0.00,Wunderground v.1.15,2017-05-29 19:10:00,
2017-05-29 15:15:00,77.5,56.3,29.91,SSW,202,9.0,15.0,48,0.00,,,0.00,Wunderground v.1.15,2017-05-29 19:15:00,
2017-05-29 15:25:00,78.5,57.2,29.91,South,184,7.0,10.0,48,0.00,,,0.00,Wunderground v.1.15,2017-05-29 19:25:00,
2017-05-29 15:30:00,78.5,56.6,29.91,SSW,194,8.0,11.0,47,0.00,,,0.00,Wunderground v.1.15,2017-05-29 19:30:00,
2017-05-29 15:40:00,78.9,58.1,29.91,SSW,213,7.0,11.0,49,0.00,,,0.00,Wunderground v.1.15,2017-05-29 19:40:00,
2017-05-29 15:45:00,79.0,57.6,29.90,SW,226,6.0,11.0,48,0.00,,,0.00,Wunderground v.1.15,2017-05-29 19:45:00,
2017-05-29 15:55:00,79.0,55.8,29.90,WSW,242,5.0,10.0,45,0.00,,,0.00,Wunderground v.1.15,2017-05-29 19:55:00,
2017-05-29 16:05:00,78.3,55.8,29.91,West,275,5.0,7.0,46,0.00,,,0.00,Wunderground v.1.15,2017-05-29 20:05:00,
2017-05-29 16:10:00,77.7,54.0,29.91,SSW,199,6.0,6.0,44,0.00,,,0.00,Wunderground v.1.15,2017-05-29 20:10:00,
2017-05-29 16:20:00,77.3,55.5,29.91,SW,236,4.0,16.0,47,0.00,,,0.00,Wunderground v.1.15,2017-05-29 20:20:00,
2017-05-29 16:30:00,77.3,55.5,29.90,SSW,209,7.0,11.0,47,0.00,,,0.00,Wunderground v.1.15,2017-05-29 20:30:00,
2017-05-29 16:35:00,77.1,54.7,29.90,SW,231,5.0,11.0,46,0.00,,,0.00,Wunderground v.1.15,2017-05-29 20:35:00,